Regional Weather Roundup
Issued by NWS

Home | Current Version | Previous Version | Graphics & Text | Print | Product List | Glossary On
Versions: 1 2 3 4 5 6 7 8 9 10 11 12 13 14 15 16 17 18 19 20 21 22 23 24 25 26 27 28 29 30 31 32 33 34 35 36 37 38 39 40 41 42 43 44 45 46 47 48 49 50
000
ASUS43 KOAX 221810
RWRNE

WEATHER ROUNDUP FOR NEBRASKA
NATIONAL WEATHER SERVICE OMAHA NE
100 PM CDT FRI AUG 22 2014

NOTES: SATELLITE DATA IS BEING USED TO AUGMENT CLOUD COVER ABOVE
       12000 FEET.
       "FAIR" INDICATES FEW OR NO CLOUDS BELOW 12,000 FEET WITH NO
       SIGNIFICANT WEATHER AND/OR OBSTRUCTIONS TO VISIBILITY.

  * THESE STATIONS DO NOT REPORT WEATHER SUCH AS RAIN...SNOW OR FOG.

NEZ001>004-019>022-054>056-221900-
NEBRASKA PANHANDLE

CITY           SKY/WX    TMP DP  RH WIND       PRES   REMARKS
SCOTTSBLUFF    CLOUDY    74  53  48 SE5       30.09F
6HR MIN TEMP:  62; 6HR MAX TEMP:  74;

ALLIANCE       CLOUDY    73  55  53 N3        30.09F
6HR MIN TEMP:  62; 6HR MAX TEMP:  74;

CHADRON        PTSUNNY   70  59  68 E6        30.06F
6HR MIN TEMP:  58; 6HR MAX TEMP:  70;

KIMBALL        CLOUDY    73  55  54 W6        30.12F
SIDNEY         LGT RAIN  64  61  90 CALM      30.13F
6HR MIN TEMP:  62; 6HR MAX TEMP:  65; 6HR PCP:  0.06;

$$

NEZ057>060-069>072-079>082-221900-
SOUTHWEST NEBRASKA

CITY           SKY/WX    TMP DP  RH WIND       PRES   REMARKS
NORTH PLATTE   LGT RAIN  74  62  66 N6        30.05R
6HR MIN TEMP:  63; 6HR MAX TEMP:  79; 6HR PCP: TRACE;

IMPERIAL       CLOUDY    78  59  51 N13       30.06F
6HR MIN TEMP:  67; 6HR MAX TEMP:  78; 6HR PCP: TRACE;

LEXINGTON      PTSUNNY   85  73  68 NE8       29.99F HX  91
MCCOOK         PTSUNNY   89  61  38 N15       30.00S
6HR MIN TEMP:  64; 6HR MAX TEMP:  90;

OGALLALA       CLOUDY    70  62  75 NW12      30.06F
$$

NEZ005>010-023>029-035>040-094-221900-
NORTH CENTRAL NEBRASKA

CITY           SKY/WX    TMP DP  RH WIND       PRES   REMARKS
VALENTINE      CLOUDY    76  60  57 NW9       30.02F
6HR MIN TEMP:  65; 6HR MAX TEMP:  77;

AINSWORTH      LGT RAIN  75  69  83 CALM      30.03F
BROKEN BOW     CLOUDY    84  70  62 E10       30.00F
6HR MIN TEMP:  66; 6HR MAX TEMP:  87;

O`NEILL        PTSUNNY   81  71  71 E10       30.00F
ORD            PTSUNNY   86  70  58 NE7       29.97F HX  90
6HR MIN TEMP:  65; 6HR MAX TEMP:  86;

THEDFORD       CLOUDY    71  64  76 CALM      30.07R
$$

NEZ041-046>049-061>064-073>077-083>087-221900-
SOUTH CENTRAL NEBRASKA

CITY           SKY/WX    TMP DP  RH WIND       PRES   REMARKS
GRAND ISLAND   MOSUNNY   85  72  65 NE8       29.97S HX  91
6HR MIN TEMP:  68; 6HR MAX TEMP:  86;

AURORA         PTSUNNY   85  76  74 CALM      29.96S HX  95
HASTINGS       SUNNY     84  70  62 VRB5      29.97S
6HR MIN TEMP:  68; 6HR MAX TEMP:  84;

HEBRON         MOSUNNY   82  68  61 S6        29.93F
HOLDREGE       MOSUNNY   82  71  69 NE9       29.98F
KEARNEY *      SUNNY     84  73  70 NE10      29.98F HX  91
YORK           MOSUNNY   84 N/A N/A E5        29.95F
$$

NEZ011>018-030>034-042>045-221900-
NORTHEAST NEBRASKA

CITY           SKY/WX    TMP DP  RH WIND       PRES   REMARKS
NORFOLK        MOSUNNY   87  72  60 E8        29.95F HX  93
6HR MIN TEMP:  69; 6HR MAX TEMP:  88;

ALBION         MOSUNNY   84  71  65 N7        29.98S
BLAIR          MOSUNNY   86  74  67 CALM      29.94R HX  95
FREMONT        CLOUDY    87  73  63 CALM      29.94R HX  94
TEKAMAH        CLOUDY    91  77  63 N7        29.93R HX 104
6HR MIN TEMP:  71; 6HR MAX TEMP:  91;

WAYNE          SUNNY     85  73  66 NE6       29.97S HX  91
$$

NEZ050>053-065>068-078-088>093-221900-
SOUTHEAST NEBRASKA

CITY           SKY/WX    TMP DP  RH WIND       PRES   REMARKS
LINCOLN        MOSUNNY   92  73  53 N7        29.92S HX 100
6HR MIN TEMP:  73; 6HR MAX TEMP:  92;

OMAHA EPPLEY   MOSUNNY   89  74  60 VRB3      29.92S HX  98
6HR MIN TEMP:  73; 6HR MAX TEMP:  89;

BEATRICE       PTSUNNY   81  74  78 SW6       29.94R
FALLS CITY     CLOUDY    77  73  87 S8        29.90S
6HR MIN TEMP:  74; 6HR MAX TEMP:  80; 6HR PCP:  0.07;

NEBRASKA CITY  PTSUNNY   83  71  69 CALM      29.91F
PLATTSMOUTH    MOSUNNY   88  72  58 CALM      29.92S HX  94
$$

NEZ044-045-051>053-067-221900-
OMAHA AREA

CITY           SKY/WX    TMP DP  RH WIND       PRES   REMARKS
OMAHA EPPLEY   MOSUNNY   89  74  60 VRB3      29.92S HX  98
6HR MIN TEMP:  73; 6HR MAX TEMP:  89;

BLAIR          MOSUNNY   86  74  67 CALM      29.94R HX  95
FREMONT        CLOUDY    87  73  63 CALM      29.94R HX  94
MILLARD        MOSUNNY   87  75  65 CALM      29.92R HX  96
OFFUTT AFB     PTSUNNY   88  79  75 VRB2      29.91S HX 102
PLATTSMOUTH    MOSUNNY   88  72  58 CALM      29.92S HX  94
WAHOO          FAIR      87  71  59 MISG      29.93S HX  92
$$



USA.gov is the U.S. government's official web portal to all federal, state and local government web resources and services.